カタログに戻る

FENGYUN 1C DEB

運用中SSO
NORAD 30064·DEBRIS·🇨🇳 China

打ち上げ May 10, 1999 から Taiyuan Satellite Launch Center

Loading…

次のパス (今後24時間)

TLE

最新Source: Space-Track

元期: Sep 14, 2026, 11:55 UTC

1 30064U 99025PR  26257.49714674  .00000169  00000-0  10781-3 0  9998
2 30064  98.6584 265.1819 0066362  44.1193 108.4181 14.14437880 14033

AllMySatでFENGYUN 1C DEBをリアルタイム追跡

Download on the App Store